COSMOS 1275 DEB, 14627

Orbit data source: Space-Track

COSMOS 1275 DEB, 14627 is space debris in LEO originally from a launch on Thu, 04 Jun 1981 UTC launched from the Plesetsk Missile And Space Complex (PKMTR). Debris objects in space refer to the collection of defunct objects orbiting the Earth. Examples of debris include non-operational satellites, rocket bodies, and fragments generated from explosions, collisions, or faulty payload assembly.

Loading next visibility...
Identifier
14627, 1981-053JQ
Orbit
LEO
Country
Flag of CISCIS
Related business
Manufacturer
Unknown
Mission
Spacecraft
Bus & Motor
Unknown
Mass
Unknown
Launch date (UTC)
1981-06-04 (45 years ago)
Launch vehicle
Unknown
Launch site
Plesetsk Missile And Space Complex (PKMTR)
Object type
Payload
Rocket body
Debris
Shape & HBR
Unknown shape, 0.1 m
Radar Cross Section
Small (<0.1 m²)

Expand to show TLE details & history
Last TLE update: 7 hours ago

TLE from 7 hours ago
0 COSMOS 1275 DEB
1 14627U 81053JQ  26046.29086479  .00001995  00000-0  11723-2 0  9990
2 14627  82.7826 143.2869 0028399   1.5012  53.6656 14.07464050144289
Epoch: 2026-02-15T06:58Z
TLE epoch observation values (Epoch: 2026-02-15T06:58:50.717Z)
Latitude
54.87515°
Longitude
-96.41035°
Altitude
864.987 km
Speed
7.431 km/s
True Right ascension
10h 14m 24s
True Declination
54° 42' 56"
Sunlit
Object was in full shadow at epoch
Visualization orbit readout
Latitude
Unknown
Longitude
Unknown
Altitude
Unknown
Speed
Unknown
Apparent Right ascension
Unknown
Apparent Declination
Unknown
Sunlit
N/A
Visualization observer readout
Local Sidereal Time
16:43:46
Azimuth
Unknown
Elevation
Unknown
Doppler factor
Unknown
Orbital elements
Apogee altitude
885.743 km
Perigee altitude
844.603 km
Semi-major axis
7,243.31 km
Eccentricity
0.00284
Inclination
82.7826°
RAAN
143.2869°
Arg. of periapsis
1.5012°
True anomaly
53.92831°
Mean anomaly
53.6656°
Eccentric anomaly
53.7969°
Mean motion
3.52077 °/min
Orbital period
102.25 mins
BSTAR
0.0011723
Loading maneuver chart data...
Computing Atmospheric mass density...

Documentation

Showing up to 5 results
|